STARLINK-34814, 65100

Orbit data source: Space-Track

STARLINK-34814, 65100 is a payload satellite owned by SpaceX/Seattle (US) in LEO that was launched on Mon, 04 Aug 2025 UTC via an FALCON 9 launch vehicle from the Air Force Eastern Test Range (AFETR). Payload-class satellites include a variety of spacecraft equipped with specific instruments for various scientific and technological missions. These include communications satellites like Starlink; space stations such as the ISS; scientific satellites like the Hubble; Earth observation satellites from companies like Planet Labs, Umbra, and HawkEye 360; GPS; miniature CubeSats for education and research; and military/defense satellites.

Loading next visibility...
Identifier
65100, 2025-167Y
Orbit
LEO
Country
Flag of USUS
Related business
Manufacturer
SpaceX/Seattle
Mission
Operational spacecraft
Bus & Motor
STARLINK V2MO, Unknown motor
Mass
575 kg wet, ~530 kg dry
Launch date (UTC)
2025-08-04 (1 month ago)
Launch vehicle
FALCON 9
Launch site
Air Force Eastern Test Range (AFETR)
Object type
Payload
Rocket body
Debris
Shape & HBR
Unknown
Radar Cross Section
Large (>1 m²)

Expand to show TLE details & history
Last TLE update: 12 hours ago

TLE from 12 hours ago
0 STARLINK-34814
1 65100U 25167Y   25243.11197547  .00560549  00000-0  35475-2 0  9999
2 65100  53.1583 195.3037 0001936 173.8849 186.2195 15.74420620  4250
Epoch: 2025-08-31T02:41Z
TLE epoch observation values (Epoch: 2025-08-31T02:41:14.68Z)
Latitude
-0.00002°
Longitude
175.45592°
Altitude
348.491 km
Speed
7.7 km/s
True Right ascension
13h 01m 12s
True Declination
0° 00' 00"
Sunlit
Object was in daylight at epoch
Visualization orbit readout
Latitude
Unknown
Longitude
Unknown
Altitude
Unknown
Speed
Unknown
Apparent Right ascension
Unknown
Apparent Declination
Unknown
Sunlit
N/A
Visualization observer readout
Local Sidereal Time
06:13:03
Azimuth
Unknown
Elevation
Unknown
Doppler factor
Unknown
Orbital elements
Apogee altitude
347.844 km
Perigee altitude
345.24 km
Semi-major axis
6,724.679 km
Eccentricity
0.00019
Inclination
53.1583°
RAAN
195.3037°
Arg. of periapsis
173.8849°
True anomaly
186.2171°
Mean anomaly
186.2195°
Eccentric anomaly
186.2183°
Mean motion
3.93583 °/min
Orbital period
91.47 mins
BSTAR
0.0035475
Loading maneuver chart data...
Computing Atmospheric mass density...
Loading historical data...
Loading historical data...
Loading historical data...
Loading historical data...
Loading historical data...
Loading historical data...
Loading historical data...

Documentation

Showing up to 5 results
|